{"data":{"norad_id":56519,"intl_designator":"2023-065S","name":"STARLINK-6313","alt_names":[],"object_type":"PAYLOAD","status":"ACTIVE","operator":null,"country":"US","launch_date":"2023-05-14","launch_site_code":"AFETR","launch_vehicle":null,"mission":null,"orbit_class":"UNKNOWN","rcs_meters":null,"size_class":null,"mass_kg":null,"dimensions":null,"purposes":["comms"],"wikipedia_slug":null,"has_3d_model":false,"image_url":null,"decayed_at":null,"tle_current":{"epoch":"2026-05-25T00:50:45.951648Z","epoch_age_seconds":68506,"freshness":"FRESH","line1":"1 56519U 23065S   26145.03525407  .00000153  00000+0  15102-4 0  9997","line2":"2 56519  43.0033 141.4944 0001234 313.2343  46.8405 15.27575315168279","mean_motion":15.27575315,"eccentricity":0.0001234,"inclination_deg":43.0033,"raan_deg":141.4944,"arg_perigee_deg":313.2343,"mean_anomaly_deg":46.8405,"bstar":1.5102e-5,"rev_number":16827,"period_min":94.267037825235,"perigee_km":482.21645255555,"apogee_km":483.90979674631,"semimajor_km":6861.2001246509,"source":"CELESTRAK","updated_at":"2026-05-25T13:38:18.108902Z"}}}